Location: Seven Kings
(51.5667°N, 0.1000°E)
Time: 11:59:02
(UTC+00:00)

Cosmos 1340 - Pass Details

Date: 29 October 2020
Orbit: 501 x 504 km, 81.2° (Epoch: 24 November)

Event Time Altitude Azimuth Distance (km) Brightness Sun altitude
Rises 17:19:19 0° 351° (N) 2,619 6.2 -7.1°
Reaches altitude 10° 17:21:31 10° 358° (N) 1,730 5.3 -7.4°
Maximum altitude 17:25:11 46° 72° (ENE) 689 2.9 -8.0°
Drops below altitude 10° 17:28:50 10° 148° (SSE) 1,717 5.1 -8.5°
Sets 17:31:00 0° 154° (SSE) 2,596 6.1 -8.9°
